Showing default

IRNSS 1E, 41241

Orbit data source: Space-Track

IRNSS 1E, 41241 is a payload satellite owned by ISRO (IN) in GEO that was launched on Wed, 20 Jan 2016 UTC via a PSLV-XL launch vehicle from the Sirharikota (SRI). Payload-class satellites include a variety of spacecraft equipped with specific instruments for various scientific and technological missions. These include communications satellites like Starlink; space stations such as the ISS; scientific satellites like the Hubble; Earth observation satellites from companies like Planet Labs, Umbra, and HawkEye 360; GPS; miniature CubeSats for education and research; and military/defense satellites.

Not visible in the next 10 days
Identifier
41241, 2016-003A
Orbit
GEO
Country
Flag of ININ / IND
Related business
Manufacturer
ISRO SAC/Banga
Mission
Partially operational Civil Navigation
Bus & Motor
I1K, ISRO LAM
Mass
1,425 kg wet, 598 kg dry
Launch date (UTC)
2016-01-20 (10 years ago)
Launch vehicle
PSLV-XL
Launch site
Sirharikota (SRI)
Object type
Payload
Rocket body
Debris
Shape & HBR
Box + 2 Pan, 5.0 m
Radar Cross Section
6.961 m², Large (>1 m²)

Expand to show TLE details & history
Last TLE update: 19 hours ago

TLE from 19 hours ago
0 IRNSS 1E
1 41241U 16003A   26062.89409245 -.00000293  00000-0  00000+0 0  9993
2 41241  33.0059  61.2659 0017752 189.2049 344.8575  1.00274986 37023
Epoch: 2026-03-03T21:27Z
TLE epoch observation values (Epoch: 2026-03-03T21:27:29.587Z)
Latitude
3.2611°
Longitude
112.70131°
Altitude
35,713.234 km
Speed
3.08 km/s
True Right ascension
15h 44m 57s
True Declination
3° 15' 28"
Sunlit
Object was in daylight at epoch
Visualization orbit readout
Latitude
Unknown
Longitude
Unknown
Altitude
Unknown
Speed
Unknown
Apparent Right ascension
Unknown
Apparent Declination
Unknown
Sunlit
N/A
Visualization observer readout
Local Sidereal Time
20:20:58
Azimuth
Unknown
Elevation
Unknown
Doppler factor
Unknown
Orbital elements
Apogee altitude
35,861.153 km
Perigee altitude
35,711.453 km
Semi-major axis
42,164.44 km
Eccentricity
0.00178
Inclination
33.0059°
RAAN
61.2659°
Arg. of periapsis
189.2049°
True anomaly
344.80425°
Mean anomaly
344.8575°
Eccentric anomaly
344.83089°
Mean motion
0.25068 °/min
Orbital period
1,436.08 mins
BSTAR
0
Loading maneuver chart data...
Computing Atmospheric mass density...
Loading historical data...
Loading historical data...
Loading historical data...
Loading historical data...
Loading historical data...
Loading historical data...
Loading historical data...
Other satellites on launch #3 in the year 2016 (2016-01-20 UTC)

Documentation

Showing up to 5 results
|